Pendleton, OR

9:02 AM PDT on April 30, 2017 (GMT -0700)
Eastern Oreg Regional At Pendleton

Weather History for KPDT - July, 2013

Change the Weather History Date:

Wednesday, July 17, 2013

  Actual Average Record
Temperature  
Mean Temperature 79 °F 73 °F  
Max Temperature 95 °F 89 °F 110 °F (1918)
Min Temperature 62 °F 58 °F 28 °F (1897)
Degree Days  
Heating Degree Days 0 0  
Month to date heating degree days 0 7  
Since 1 June heating degree days 80 90  
Since 1 July heating degree days 0 7  
Cooling Degree Days 14 9  
Month to date cooling degree days 177 116  
Year to date cooling degree days 303 218  
Since 1 June cooling degree days 272 195  
Growing Degree Days 28 (Base 50)    
Moisture  
Dew Point 42 °F    
Average Humidity 32    
Maximum Humidity 52    
Minimum Humidity 12    
Precipitation  
Precipitation 0.00 in 0.01 in 0.18 in (1920)
Month to date precipitation 0.06 0.20  
Year to date precipitation 4.97 7.59  
Snow  
Snow 0.00 in 0.00 in 0.00 in (2002)
Month to date snowfall 0.0 0.0  
Year to date snowfall 0.2 7.7  
Since 1 July snowfall 0.0 0.0  
Snow Depth 0.00 in    
Sea Level Pressure  
Sea Level Pressure 29.94 in    
Wind  
Wind Speed 9 mph (WSW)    
Max Wind Speed 21 mph    
Max Gust Speed 27 mph    
Visibility 10 miles    
Events      
T = Trace of Precipitation, MM = Missing Value Source: NWS Daily Summary

Daily Weather History Graph

Daily Weather History Graph

Search for Another Location

Airport or City:

Trip Planner

Search our weather history database for the weather conditions in past years. The results will help you decide how hot, cold, wet, or windy it might be!

Date:

Astronomy

Jul. 17, 2013 Rise Set
Actual Time 5:22 AM PDT 8:39 PM PDT
Civil Twilight 4:46 AM PDT 9:16 PM PDT
Nautical Twilight 3:59 AM PDT 10:03 PM PDT
Astronomical Twilight 2:59 AM PDT 11:01 PM PDT
Moon 3:30 PM PDT (7/17) 12:38 AM PDT (7/17)
Length of Visible Light 16h 29m
Length of Day
15h 17m
Waxing Gibbous, 68% of the Moon is Illuminated
Jul 17
Waxing Gibbous
Jul 22
Full
Jul 29
Last Quarter
Aug 6
New
Aug 14
First Quarter

Hourly Weather History & Observations

Time (PDT) Temp. Dew Point Humidity Pressure Visibility Wind Dir Wind Speed Gust Speed Precip Events Conditions
12:53 AM 69.1 °F 48.9 °F 49% 29.80 in 10.0 mi SSE 5.8 mph - N/A   Clear
1:53 AM 68.0 °F 46.0 °F 45% 29.81 in 10.0 mi South 9.2 mph - N/A   Clear
2:53 AM 66.9 °F 46.9 °F 49% 29.83 in 10.0 mi SSE 6.9 mph - N/A   Clear
3:53 AM 64.9 °F 46.0 °F 50% 29.86 in 10.0 mi SSE 6.9 mph - N/A   Clear
4:53 AM 64.9 °F 46.9 °F 52% 29.88 in 10.0 mi ESE 4.6 mph - N/A   Clear
5:53 AM 66.0 °F 46.0 °F 48% 29.90 in 10.0 mi SSE 5.8 mph - N/A   Clear
6:53 AM 71.1 °F 46.0 °F 41% 29.92 in 10.0 mi SE 4.6 mph - N/A   Clear
7:53 AM 77.0 °F 48.0 °F 36% 29.95 in 10.0 mi WSW 9.2 mph - N/A   Clear
8:53 AM 80.1 °F 50.0 °F 35% 29.96 in 10.0 mi West 16.1 mph 24.2 mph N/A   Clear
9:53 AM 82.9 °F 50.0 °F 32% 29.97 in 10.0 mi WSW 17.3 mph 24.2 mph N/A   Clear
10:53 AM 86.0 °F 48.0 °F 27% 29.98 in 10.0 mi Variable 5.8 mph 20.7 mph N/A   Clear
11:53 AM 88.0 °F 46.9 °F 24% 29.98 in 10.0 mi West 16.1 mph 25.3 mph N/A   Clear
12:53 PM 90.0 °F 44.1 °F 20% 29.98 in 10.0 mi West 13.8 mph 23.0 mph N/A   Clear
1:53 PM 91.0 °F 42.1 °F 18% 29.98 in 10.0 mi West 11.5 mph 20.7 mph N/A   Clear
2:53 PM 93.9 °F 39.0 °F 15% 29.96 in 10.0 mi WNW 10.4 mph 23.0 mph N/A   Clear
3:53 PM 93.9 °F 35.1 °F 13% 29.96 in 10.0 mi WNW 8.1 mph 19.6 mph N/A   Clear
4:53 PM 95.0 °F 36.0 °F 13% 29.94 in 10.0 mi WNW 9.2 mph - N/A   Clear
5:53 PM 93.9 °F 37.0 °F 14% 29.94 in 10.0 mi NW 11.5 mph 19.6 mph N/A   Clear
6:53 PM 91.9 °F 37.0 °F 15% 29.94 in 10.0 mi WNW 12.7 mph - N/A   Clear
7:53 PM 87.1 °F 35.1 °F 16% 29.95 in 10.0 mi WNW 11.5 mph - N/A   Clear
8:53 PM 75.9 °F 36.0 °F 23% 29.98 in 10.0 mi WNW 8.1 mph - N/A   Clear
9:53 PM 75.0 °F 30.0 °F 19% 29.99 in 10.0 mi West 9.2 mph - N/A   Clear
10:53 PM 75.9 °F 30.0 °F 19% 30.00 in 10.0 mi South 5.8 mph - N/A   Clear
11:53 PM 71.1 °F 34.0 °F 26% 30.02 in 10.0 mi SSE 6.9 mph - N/A   Clear